Volver al catálogo

STARLINK-36563

ActivoComunicacionesSSO
NORAD 67550·PAYLOAD·🇺🇸 United States

Lanzado Jan 22, 2026 desde Vandenberg Space Force Base

Loading…

Próximos Pases (próximas 24 horas)

TLE

ActualizadoSource: CelesTrak SupGP

Época: Sep 14, 2026, 23:09 UTC

1 67550C 26014U   26257.96506944  .00046805  00000+0  14536-2 0  2571
2 67550  97.2847 143.4830 0001720  90.8307 314.7650 15.33400367    11

Sigue STARLINK-36563 en tiempo real con AllMySat

Download on the App Store